Flag for U.S.A. Weather past 2 weeks in Talkeetna, Alaska, U.S.A.

Now
-3 °F

Overcast.


Feels Like: -11 °F
Forecast: -10 / 2 °F
Wind: 3 mph from Northeast

Location: Talkeetna Weather Reporting Station

Current Time: Jan 26, 2015 at 9:40:21 PM

Latest Report: Jan 26, 2015 at 8:53 PM


Visibility: 10 mi

Pressure: 30.04 "Hg

Humidity: 65%

Dew point: -12 °F

Location of TalkeetnaLocation

Historic Weather in Talkeetna — Graph

°F

Talkeetna temperature yesterday

Maximum temperature yesterday: 8 °F (at 12:53 AM)
Minimum temperature yesterday: -22 °F (at 10:53 PM)
Average temperature yesterday: -5 °F

Past Weeks' High & Low Weather Summary

 TemperatureHumidityPressure
High42 °F (Jan 14, 2:53 PM)92% (Jan 11, 10:53 PM)30.11 "Hg (Jan 11, 10:53 PM)
Low-26 °F (Jan 26, 2:53 AM)49% (Jan 14, 1:53 PM)28.79 "Hg (Jan 15, 2:53 PM)
Average19 °F72%29.47 "Hg
* Reported Jan 11 7:53 PM — Jan 26 7:53 PM, Talkeetna, Weather by CustomWeather, © 2014

Note: Actual official high and low records may vary slightly from our data, if they occured in-between our weather recording intervals... More about our weather records

Advertising

Talkeetna weather history for previous 24 hours

 ConditionsComfort  
Time TempWeatherWind HumidityBarometerVisibility
7:53 PM
Jan 26
-6 °FPassing clouds.3 mph67%30.04 "Hg10 mi
6:53 PM-3 °FClear.6 mph65%30.04 "Hg10 mi
5:53 PM-2 °FClear.5 mph65%30.05 "Hg10 mi
4:53 PM2 °FClear.6 mphN/A30.05 "Hg10 mi
3:53 PM2 °FSunny.5 mphN/A30.06 "Hg10 mi
2:53 PM2 °FSunny.7 mphN/A30.06 "Hg10 mi
1:53 PM1 °FSunny.6 mph56%30.08 "Hg10 mi
12:53 PM0 °FSunny.6 mph57%30.08 "Hg10 mi
11:53 AM-4 °FSunny.7 mph58%30.09 "Hg10 mi
10:53 AM-16 °FSunny.6 mph74%30.09 "Hg10 mi
9:53 AM-20 °FSunny.3 mph73%30.09 "Hg10 mi
8:53 AM-19 °FClear.5 mph72%30.10 "Hg10 mi
7:53 AM-22 °FClear.5 mph73%30.10 "Hg10 mi
6:53 AM-23 °FClear.5 mph73%30.11 "Hg10 mi
5:53 AM-26 °FClear.5 mph76%30.11 "Hg10 mi
4:53 AM-26 °FClear.No wind68%30.11 "Hg10 mi
3:53 AM-26 °FClear.3 mph72%30.11 "Hg10 mi
2:53 AM-26 °FClear.5 mph72%30.10 "Hg10 mi
1:53 AM-25 °FClear.6 mph73%30.09 "Hg10 mi
12:53 AM-24 °FClear.5 mph73%30.09 "Hg10 mi
11:53 PM
Jan 25
-22 °FClear.3 mph73%30.07 "Hg10 mi
10:53 PM-22 °FClear.5 mph73%30.05 "Hg10 mi
9:53 PM-21 °FClear.No wind72%30.03 "Hg10 mi
Weather by CustomWeather, © 2014

See weather overviewHow to use our weather pages